EW3708 Weather Reports


time (UTC)temp
C
wind
direction
speed
KPH
gust
KPH
rain 1hr
cm
rain 24hr
cm
rain mn
cm
humidity
%
barometer
mb
20211017163042 9 115 1.6 4.8 0.03 0.64 0.03 91 1010.1
20211017161627 9 244 0.0 1.6 0.03 0.64 0.03 91 1010.3
20211017160106 9 261 0.0 4.8 0.00 0.61 0.00 88 1010.4
20211017154610 9 40 3.2 12.9 0.00 0.61 0.00 85 1010.5
20211017153046 9 265 1.6 9.7 0.00 0.61 0.00 89 1010.6
20211017151553 8 5 0.0 3.2 0.00 0.61 0.00 92 1010.6
20211017150032 8 360 3.2 14.5 0.00 0.61 0.00 91 1010.6
20211017144548 8 254 1.6 6.4 0.00 0.61 0.00 91 1010.6
20211017143107 8 169 1.6 6.4 0.00 0.61 0.00 91 1010.8
20211017141559 8 281 1.6 8.0 0.00 0.61 0.00 92 1010.7
20211017140026 8 234 3.2 12.9 0.00 0.61 0.00 93 1010.6
20211017134528 8 286 3.2 8.0 0.00 0.61 0.00 95 1010.5
20211017133042 8 260 1.6 6.4 0.00 0.61 0.00 95 1010.6
20211017131526 7 236 1.6 8.0 0.00 0.61 0.00 96 1010.5
20211017130016 7 237 1.6 6.4 0.00 0.61 0.00 97 1010.5
20211017124527 7 274 1.6 9.7 0.00 0.61 0.00 97 1010.3
20211017123015 7 208 3.2 9.7 0.00 0.61 0.00 97 1010.3
20211017121512 7 254 1.6 6.4 0.00 0.61 0.00 98 1009.9
20211017120011 7 291 0.0 4.8 0.00 0.61 0.00 97 1009.8
20211017114538 7 304 0.0 9.7 0.00 0.61 0.00 97 1009.7
20211017113027 6 279 0.0 4.8 0.00 0.61 0.00 97 1009.6
20211017111519 6 230 1.6 8.0 0.00 0.61 0.00 97 1009.4
20211017110014 6 308 1.6 4.8 0.00 0.61 0.00 97 1009.2
20211017104514 6 209 0.0 3.2 0.00 0.61 0.00 97 1009.2
20211017103004 6 312 0.0 3.2 0.00 0.61 0.00 97 1009.1
20211017101502 6 219 1.6 4.8 0.00 0.61 0.00 97 1009.1
20211017100002 6 297 1.6 4.8 0.00 0.61 0.00 97 1009.0
20211017094501 7 268 0.0 8.0 0.00 0.61 0.00 97 1009.1
20211017093128 6 336 1.6 4.8 0.00 0.61 0.00 97 1009.0
20211017091748 6 300 0.0 3.2 0.00 0.61 0.00 97 1008.9
20211017090130 6 311 0.0 4.8 0.00 0.61 0.00 97 1008.6
20211017084618 6 249 0.0 1.6 0.00 0.61 0.00 97 1008.5
20211017083158 6 249 0.0 1.6 0.00 0.61 0.00 97 1008.5
20211017081634 7 249 0.0 1.6 0.00 0.61 0.00 96 1008.6
20211017080138 7 267 0.0 3.2 0.00 0.61 0.00 97 1008.4
20211017074630 7 261 1.6 6.4 0.00 0.61 0.00 97 1008.3
20211017073115 7 289 1.6 4.8 0.00 0.61 0.00 97 1008.4
20211017071554 7 327 0.0 6.4 0.00 0.61 0.00 96 1008.4
20211017070113 7 265 0.0 4.8 0.00 0.61 0.00 97 1008.3
20211017064656 7 290 1.6 6.4 0.00 0.61 0.00 97 1008.2
20211017063049 7 305 0.0 3.2 0.00 0.61 0.00 97 1008.2
20211017061600 7 286 0.0 3.2 0.00 0.61 0.00 97 1008.4
20211017060113 7 237 0.0 3.2 0.00 0.61 0.00 97 1008.4
20211017054553 7 351 0.0 4.8 0.00 0.61 0.00 97 1008.5
20211017053052 7 258 0.0 4.8 0.00 0.61 0.00 97 1008.6
20211017051614 7 327 0.0 4.8 0.00 0.61 0.00 97 1008.6
20211017050108 8 253 0.0 4.8 0.00 0.61 0.00 97 1008.5
20211017044611 8 275 0.0 4.8 0.00 0.61 0.00 97 1008.6
20211017043118 8 269 0.0 3.2 0.00 0.61 0.00 97 1008.6
20211017041534 8 277 0.0 4.8 0.00 0.61 0.00 97 1008.9
20211017040044 8 252 0.0 4.8 0.00 0.61 0.00 97 1008.8
20211017034557 8 280 0.0 3.2 0.00 0.61 0.61 97 1008.8
20211017033055 8 284 0.0 1.6 0.00 0.61 0.61 97 1008.8
20211017031534 8 284 0.0 1.6 0.00 0.61 0.61 97 1008.9
20211017030058 8 284 0.0 3.2 0.00 0.61 0.61 96 1008.7
20211017024522 8 284 0.0 3.2 0.00 0.61 0.61 96 1008.6
20211017023042 8 284 0.0 1.6 0.00 0.61 0.61 96 1008.5
20211017021535 9 302 0.0 3.2 0.00 0.61 0.61 96 1008.4
20211017020035 9 303 0.0 1.6 0.00 0.61 0.61 96 1008.1
20211017014524 10 303 0.0 3.2 0.00 0.61 0.61 96 1008.0
20211017013040 10 272 0.0 3.2 0.00 0.61 0.61 96 1007.9
20211017011529 10 287 0.0 3.2 0.00 0.61 0.61 97 1007.8
20211017010051 11 263 1.6 4.8 0.00 0.61 0.61 97 1007.6
20211017004504 11 312 0.0 6.4 0.00 0.61 0.61 97 1006.8
20211017003002 11 264 0.0 3.2 0.00 0.61 0.61 97 1006.3
20211017001505 11 193 0.0 3.2 0.03 0.61 0.61 97 1006.6
20211017000236 11 264 1.6 4.8 0.03 0.61 0.61 96 1006.2
20211016234842 11 332 1.6 8.0 0.08 0.61 0.61 97 1005.8
20211016233127 11 331 1.6 4.8 0.10 0.61 0.61 96 1006.1
20211016231626 11 271 1.6 9.7 0.15 0.58 0.58 96 1005.4
20211016230127 11 19 3.2 11.3 0.23 0.58 0.58 96 1005.2
20211016224630 12 240 1.6 6.4 0.23 0.53 0.53 96 1005.4
20211016223148 12 280 0.0 8.0 0.25 0.51 0.51 95 1005.5
20211016221647 12 268 1.6 11.3 0.25 0.43 0.43 95 1005.0
20211016220116 13 287 1.6 8.0 0.18 0.36 0.36 94 1004.8
20211016214651 14 314 0.0 4.8 0.15 0.30 0.30 96 1003.5
20211016213135 14 344 1.6 9.7 0.10 0.25 0.25 96 1004.2
20211016211611 15 213 1.6 8.0 0.03 0.18 0.18 96 1004.0
20211016210133 15 115 0.0 3.2 0.13 0.18 0.18 95 1002.7
20211016204553 15 51 1.6 8.0 0.13 0.15 0.15 95 1003.1
20211016203104 15 223 1.6 8.0 0.15 0.15 0.15 94 1003.3
20211016201621 15 326 0.0 4.8 0.13 0.13 0.13 94 1003.7
20211016200103 15 310 0.0 3.2 0.05 0.05 0.05 93 1002.8
20211016194605 15 304 0.0 3.2 0.03 0.03 0.03 93 1003.3
20211016193130 15 315 0.0 4.8 0.00 0.00 0.00 92 1002.9
20211016191629 16 196 1.6 4.8 0.00 0.00 0.00 92 1002.8
20211016190109 16 259 0.0 3.2 0.00 0.00 0.00 90 1002.4
20211016184550 16 318 1.6 4.8 0.00 0.00 0.00 86 1002.3
20211016183030 18 271 1.6 12.9 0.00 0.00 0.00 79 1002.5
20211016181553 22 272 8.0 17.7 0.00 0.00 0.00 73 1002.4
20211016180135 21 143 4.8 16.1 0.00 0.00 0.00 77 1001.2
20211016174532 22 164 4.8 16.1 0.00 0.00 0.00 74 1001.5
20211016173031 22 210 4.8 14.5 0.00 0.00 0.00 76 1001.7
20211016171516 21 144 6.4 14.5 0.00 0.00 0.00 77 1002.0
20211016170034 21 150 6.4 16.1 0.00 0.00 0.00 76 1002.3
20211016164618 21 163 8.0 22.5 0.00 0.00 0.00 77 1002.7